PulseSat

PulseSat

COSMOS 2476 (744)

Last updated on Jan. 18, 2019, 3 a.m. UTC

1 37867U 11064A   19017.65131560  .00000064  00000-0  00000+0 0  9997
2 37867  64.4973 164.6353 0016742 235.8280   1.6533  2.13101919 56110
UTC
Height (km)
Latitude
Longitude
Inclination
Orbital Period

Next 30 passes for location: Hong Kong

Rise time Rise Azimuth (degrees) Set time Set Azimuth (degrees) Duration Max altitude (degrees)

No matching passes for this satellites

PulseSat

PulseSat is the new satellites software and hardware trackering solution by Pulsely.
Satellite Two Line Element Set source: US Air Force Space Command

Download PulseSat for iOS
© 2017 Pulsely Limited